Printer-friendly version
Follow the MPC on Twitter Follow the MPC on Facebook The MPC blog
Minor Planet Center

MPEC 2004-T34 : 2004 TH10

The following Minor Planet Electronic Circular may be linked-to from your own Web pages, but must not otherwise be redistributed electronically.

A form allowing access to any MPEC is at the bottom of this page.


Read MPEC 2004-T33 Read MPEC 2004-T35


M.P.E.C. 2004-T34                                Issued 2004 Oct.  9, 15:11 UT

     The Minor Planet Electronic Circulars contain information on unusual
         minor planets and routine data on comets.  They are published
   on behalf of Commission 20 of the International Astronomical Union by the
          Minor Planet Center, Smithsonian Astrophysical Observatory,
                          Cambridge, MA 02138, U.S.A.

                  Supported in part by the Brinson Foundation
             Prepared using the Tamkin Foundation Computer Network

                              MPC@CFA.HARVARD.EDU
          URL http://cfa-www.harvard.edu/iau/mpc.html  ISSN 1523-6714

                                   2004 TH10

Observations:
     K04T10H* C2004 10 08.26265 00 32 59.94 +36 44 42.8          19.2   ET034704
     K04T10H  C2004 10 08.27350 00 32 57.49 +36 44 36.4          19.6   ET034704
     K04T10H  C2004 10 08.28437 00 32 55.15 +36 44 29.0          19.7   ET034704
     K04T10H  C2004 10 08.29524 00 32 52.80 +36 44 24.1          20.1   ET034704
     K04T10H  C2004 10 08.30611 00 32 50.32 +36 44 16.9          20.1   ET034704
     K04T10H  C2004 10 09.04120 00 30 10.49 +36 36 38.4          19.8 R ET034176
     K04T10H  C2004 10 09.04282 00 30 10.13 +36 36 37.9          19.7 R ET034176
     K04T10H  C2004 10 09.04444 00 30 09.77 +36 36 36.4          19.7 R ET034176
     K04T10H  C2004 10 09.04609 00 30 09.38 +36 36 35.6          19.9 R ET034176
     K04T10H  C2004 10 09.04773 00 30 08.97 +36 36 34.1          20.2 R ET034176
     K04T10H  C2004 10 09.13814 00 29 50.10 +36 35 35.4          20.0 R ET034649
     K04T10H  C2004 10 09.14170 00 29 49.22 +36 35 33.7          20.0 R ET034649
     K04T10H  C2004 10 09.14880 00 29 47.57 +36 35 27.9          19.3 R ET034649
     K04T10H  C2004 10 09.17907 00 29 41.07 +36 35 10.4          19.4 R ET034G90
     K04T10H  C2004 10 09.18220 00 29 40.36 +36 35 08.2          19.4 R ET034G90
     K04T10H  C2004 10 09.18533 00 29 39.69 +36 35 05.5          19.6 R ET034G90
     K04T10H  C2004 10 09.26662 00 29 21.40 +36 34 14.0          19.5 R ET034711
     K04T10H IC2004 10 09.27402 00 29 19.89 +36 34 10.9                 ET034711
     K04T10H  C2004 10 09.28144 00 29 18.08 +36 34 03.9          19.7 R ET034711
     K04T10H  C2004 10 09.33336 00 29 06.53 +36 33 28.2          19.9 R ET034854
     K04T10H  C2004 10 09.33920 00 29 05.30 +36 33 26.1          20.1 R ET034854
     K04T10H  C2004 10 09.34505 00 29 03.89 +36 33 21.0          19.9 R ET034854

Observer details:
176 Observatori Astronomic de Consell.  Observers A. Lopez, R. Pacheco,
    J. Forteza.  0.41-m f/4 reflector + CCD.
649 Powell Observatory, Louisburg.  Observers R. Fredrick, R. Trentman,
    A. Robertson.  0.75-m Newtonian reflector + CCD.
704 Lincoln Laboratory ETS, New Mexico.  Observers M. Blythe, F. Shelly,
    M. Bezpalko, R. Huber, L. Manguso, D. Torres, R. Kracke, M. McCleary,
    H. Stange, A. Milner.  Measurers J. Stuart, R. Sayer, J. Evans, J. Kommers.
    1.0-m f/2.15 reflector + CCD.
711 McDonald Observatory.  Observer J. G. Ries.  0.76-m reflector + CCD
    + prime-focus corrector.
854 Sabino Canyon Observatory, Tucson.  Observer J. E. McGaha.  0.36-m f/10.0
    Schmidt-Cassegrain + CCD.
G90 Three Buttes Observatory, Tucson.  Observer G. R. Jones.  0.40-m
    Ritchey-Chretien + CCD.

Orbital elements:
2004 TH10
Epoch 2004 Oct. 2.0 TT = JDT 2453280.5                  MPC
M 277.50611              (2000.0)            P               Q
n   0.70581882     Peri.  267.44354     -0.96766858     -0.05088634
a   1.2493206      Node   269.56031     +0.14590914     -0.91185445
e   0.8183587      Incl.   14.30277     -0.20573778     -0.40734756
P   1.40           H   18.4           G   0.15
From 22 observations 2004 Oct. 8-9.

Ephemeris:
2004 TH10                a,e,i = 1.25, 0.82, 14                  q = 0.2269
Date    TT    R. A. (2000) Decl.     Delta      r     Elong.  Phase     V
2004 10 02    00 54.23   +37 25.3    0.875    1.794   145.8    18.3    20.3
2004 10 12    00 19.20   +35 59.6    0.781    1.716   149.2    17.3    19.9
2004 10 22    23 40.85   +32 35.1    0.718    1.630   143.9    21.1    19.8
2004 11 01    23 05.54   +27 25.6    0.685    1.537   131.8    28.8    19.8
2004 11 11    22 37.68   +21 23.4    0.679    1.434   117.2    37.9    19.9
2004 11 21    22 18.35   +15 25.2    0.689    1.320   102.4    47.0    20.0
2004 12 01    22 06.10   +10 00.9    0.704    1.195    88.4    55.5    20.0
2004 12 11    21 58.53   +05 10.5    0.714    1.057    75.1    64.2    20.1
2004 12 21    21 52.67   +00 32.7    0.709    0.902    61.9    74.2    20.0

Kyle E. Smalley              (C) Copyright 2004 MPC           M.P.E.C. 2004-T34

Read MPEC 2004-T33 Read MPEC 2004-T35


MPEC number:

Enter an MPEC number in one of the following forms:

  • 1997-B01 (the full form)
  • J97B01 (the packed version of the full form)
  • B01 (the abbreviated form)

Valid HTML 4.01!